Wetterdaten: aktuell Freitag, 20.07.2018 21:40
Datum Zeit Temp. A. Feuchte A. Luftdruck Regen Wind Richtung Richtung Windben
20.07.2018 21:40 19,3 C 79 % 1011,8 hPa 0,0 l/m 0,0 km/h N 7 0,0 km/h
20.07.2018 21:35 19,1 C 79 % 1011,8 hPa 0,0 l/m 0,0 km/h N 352 0,0 km/h
20.07.2018 21:30 19,2 C 79 % 1011,8 hPa 0,0 l/m 0,0 km/h N 2 0,0 km/h
20.07.2018 21:25 19,4 C 78 % 1011,8 hPa 0,0 l/m 0,0 km/h N-NO 12 0,0 km/h
20.07.2018 21:20 19,6 C 78 % 1011,8 hPa 0,0 l/m 0,0 km/h N 354 0,0 km/h
20.07.2018 21:15 19,6 C 78 % 1011,8 hPa 0,0 l/m 0,0 km/h N 356 0,0 km/h
20.07.2018 21:10 19,5 C 78 % 1011,8 hPa 0,0 l/m 0,0 km/h N-NW 345 3,2 km/h
20.07.2018 21:05 19,7 C 78 % 1011,9 hPa 0,0 l/m 0,0 km/h N 3 0,0 km/h
20.07.2018 21:00 19,9 C 77 % 1011,9 hPa 0,0 l/m 0,0 km/h N 356 0,0 km/h
20.07.2018 20:55 20,0 C 76 % 1011,9 hPa 0,0 l/m 0,0 km/h N 358 0,0 km/h
20.07.2018 20:50 20,2 C 76 % 1011,9 hPa 0,0 l/m 0,0 km/h N 359 0,0 km/h
20.07.2018 20:45 20,3 C 76 % 1011,9 hPa 0,0 l/m 0,0 km/h N 356 0,0 km/h
20.07.2018 20:40 20,8 C 74 % 1011,9 hPa 0,0 l/m 0,0 km/h N-NW 346 0,0 km/h
20.07.2018 20:35 21,1 C 74 % 1012,0 hPa 0,0 l/m 0,0 km/h N 358 0,0 km/h
20.07.2018 20:30 21,1 C 73 % 1011,9 hPa 0,0 l/m 0,0 km/h N 7 0,0 km/h
20.07.2018 20:25 20,9 C 74 % 1011,9 hPa 0,0 l/m 0,0 km/h N-NW 343 0,0 km/h
20.07.2018 20:20 21,0 C 75 % 1011,9 hPa 0,0 l/m 0,0 km/h N-NW 340 3,2 km/h
20.07.2018 20:15 21,4 C 74 % 1011,9 hPa 0,0 l/m 0,0 km/h N-NW 347 0,0 km/h
20.07.2018 20:10 21,9 C 72 % 1011,8 hPa 0,0 l/m 0,0 km/h N 356 0,0 km/h
20.07.2018 20:05 22,4 C 70 % 1011,8 hPa 0,0 l/m 0,0 km/h N 355 0,0 km/h
20.07.2018 20:00 22,8 C 68 % 1011,9 hPa 0,0 l/m 0,0 km/h N-NW 340 0,0 km/h
20.07.2018 19:55 23,2 C 67 % 1011,9 hPa 0,0 l/m 0,0 km/h N-NW 333 0,0 km/h
20.07.2018 19:50 23,3 C 65 % 1011,8 hPa 0,0 l/m 0,0 km/h N-NW 333 0,0 km/h
20.07.2018 19:45 23,4 C 65 % 1011,9 hPa 0,0 l/m 0,0 km/h N-NW 333 0,0 km/h
20.07.2018 19:40 23,6 C 66 % 1011,9 hPa 0,0 l/m 0,0 km/h N-NW 348 0,0 km/h
20.07.2018 19:35 24,3 C 65 % 1011,9 hPa 0,0 l/m 0,0 km/h N 356 0,0 km/h
20.07.2018 19:30 24,6 C 60 % 1012,0 hPa 0,0 l/m 0,0 km/h SO 131 0,0 km/h
20.07.2018 19:25 24,7 C 59 % 1011,9 hPa 0,0 l/m 0,0 km/h SO 131 0,0 km/h
20.07.2018 19:20 24,9 C 61 % 1011,9 hPa 0,0 l/m 0,0 km/h SO 131 0,0 km/h
20.07.2018 19:15 25,2 C 60 % 1011,9 hPa 0,0 l/m 0,0 km/h SO 131 0,0 km/h
20.07.2018 19:10 25,4 C 59 % 1012,1 hPa 0,0 l/m 0,0 km/h SO 131 0,0 km/h
20.07.2018 19:05 25,8 C 61 % 1012,2 hPa 0,0 l/m 0,0 km/h SO 131 0,0 km/h
20.07.2018 19:00 26,1 C 57 % 1012,2 hPa 0,0 l/m 0,0 km/h SO 131 0,0 km/h
20.07.2018 18:55 26,3 C 58 % 1012,3 hPa 0,0 l/m 0,0 km/h SO 131 0,0 km/h
20.07.2018 18:50 26,3 C 61 % 1012,2 hPa 0,0 l/m 0,0 km/h SO 131 0,0 km/h
20.07.2018 18:45 26,1 C 63 % 1012,2 hPa 0,0 l/m 0,0 km/h SO 131 0,0 km/h
20.07.2018 18:40 25,7 C 67 % 1012,4 hPa 0,0 l/m 0,0 km/h SO 131 0,0 km/h
20.07.2018 18:35 25,6 C 62 % 1012,4 hPa 0,0 l/m 0,0 km/h SO 131 0,0 km/h
20.07.2018 18:30 25,6 C 62 % 1012,4 hPa 0,0 l/m 0,0 km/h SO 131 0,0 km/h
20.07.2018 18:25 25,7 C 63 % 1012,5 hPa 0,0 l/m 0,0 km/h SO 131 0,0 km/h
20.07.2018 18:20 25,8 C 62 % 1012,4 hPa 0,0 l/m 0,0 km/h SO 131 0,0 km/h
20.07.2018 18:15 25,8 C 60 % 1012,4 hPa 0,0 l/m 0,0 km/h SO 131 0,0 km/h
20.07.2018 18:10 25,7 C 59 % 1012,4 hPa 0,0 l/m 0,0 km/h SO 131 0,0 km/h
20.07.2018 18:05 25,5 C 61 % 1012,5 hPa 0,0 l/m 0,0 km/h SO 131 0,0 km/h
20.07.2018 18:00 25,5 C 63 % 1012,4 hPa 0,0 l/m 0,0 km/h SO 131 0,0 km/h
20.07.2018 17:55 25,6 C 62 % 1012,4 hPa 0,0 l/m 0,0 km/h SO 131 0,0 km/h
20.07.2018 17:50 25,6 C 59 % 1012,3 hPa 0,0 l/m 0,0 km/h SO 131 0,0 km/h
20.07.2018 17:45 25,6 C 60 % 1012,2 hPa 0,0 l/m 0,0 km/h SO 131 0,0 km/h
20.07.2018 17:40 25,7 C 62 % 1012,0 hPa 0,0 l/m 0,0 km/h SO 131 0,0 km/h
20.07.2018 17:35 25,8 C 59 % 1011,9 hPa 0,0 l/m 0,0 km/h SO 131 0,0 km/h
20.07.2018 17:30 25,7 C 65 % 1011,9 hPa 0,0 l/m 0,0 km/h SO 131 0,0 km/h
20.07.2018 17:25 25,6 C 60 % 1011,9 hPa 0,0 l/m 0,0 km/h SO 131 0,0 km/h
20.07.2018 17:20 25,7 C 66 % 1012,0 hPa 0,0 l/m 0,0 km/h SO 131 0,0 km/h
20.07.2018 17:15 25,7 C 63 % 1011,9 hPa 0,0 l/m 0,0 km/h SO 131 0,0 km/h
20.07.2018 17:10 25,6 C 63 % 1011,9 hPa 0,0 l/m 0,0 km/h SO 131 0,0 km/h
20.07.2018 17:05 25,6 C 65 % 1011,9 hPa 0,0 l/m 0,0 km/h SO 131 0,0 km/h
20.07.2018 17:00 25,7 C 63 % 1012,0 hPa 0,0 l/m 0,0 km/h SO 131 0,0 km/h
20.07.2018 16:55 25,7 C 58 % 1012,0 hPa 0,0 l/m 0,0 km/h SO 131 0,0 km/h
20.07.2018 16:50 25,8 C 65 % 1012,1 hPa 0,0 l/m 0,0 km/h SO 131 0,0 km/h
20.07.2018 16:45 25,9 C 61 % 1012,1 hPa 0,0 l/m 0,0 km/h S-SO 164 0,0 km/h
20.07.2018 16:40 25,9 C 62 % 1012,2 hPa 0,0 l/m 0,0 km/h S-SO 164 0,0 km/h
20.07.2018 16:35 26,0 C 62 % 1012,2 hPa 0,0 l/m 0,0 km/h S-SO 164 0,0 km/h
20.07.2018 16:30 26,1 C 56 % 1012,1 hPa 0,0 l/m 0,0 km/h S-SO 164 0,0 km/h
20.07.2018 16:25 26,3 C 61 % 1012,1 hPa 0,0 l/m 0,0 km/h S-SO 164 0,0 km/h
20.07.2018 16:20 26,3 C 54 % 1012,2 hPa 0,0 l/m 0,0 km/h S-SO 164 0,0 km/h
20.07.2018 16:15 26,4 C 57 % 1012,1 hPa 0,0 l/m 0,0 km/h S-SO 164 0,0 km/h
20.07.2018 16:10 26,6 C 53 % 1012,1 hPa 0,0 l/m 0,0 km/h S-SO 164 0,0 km/h
20.07.2018 16:05 26,7 C 51 % 1012,1 hPa 0,0 l/m 0,0 km/h S-SO 164 0,0 km/h
20.07.2018 16:00 26,8 C 51 % 1012,1 hPa 0,0 l/m 0,0 km/h S-SO 164 0,0 km/h
20.07.2018 15:55 26,9 C 56 % 1012,1 hPa 0,0 l/m 0,0 km/h S-SO 148 0,0 km/h
20.07.2018 15:50 26,9 C 53 % 1012,1 hPa 0,0 l/m 0,0 km/h S-SO 148 0,0 km/h
20.07.2018 15:45 26,9 C 54 % 1012,1 hPa 0,0 l/m 0,0 km/h S-SO 148 0,0 km/h
20.07.2018 15:40 26,9 C 51 % 1012,1 hPa 0,0 l/m 0,0 km/h S-SO 148 0,0 km/h
20.07.2018 15:35 27,1 C 48 % 1012,2 hPa 0,0 l/m 0,0 km/h S-SO 148 0,0 km/h
20.07.2018 15:30 27,3 C 52 % 1012,2 hPa 0,0 l/m 0,0 km/h S-SO 148 0,0 km/h
20.07.2018 15:25 27,4 C 47 % 1012,3 hPa 0,0 l/m 0,2 km/h S-SO 154 4,8 km/h
20.07.2018 15:20 27,4 C 49 % 1012,3 hPa 0,0 l/m 0,0 km/h S-SO 155 0,0 km/h
20.07.2018 15:15 27,1 C 45 % 1012,3 hPa 0,0 l/m 0,0 km/h S 180 0,0 km/h
20.07.2018 15:10 27,2 C 47 % 1012,3 hPa 0,0 l/m 0,0 km/h S 171 0,0 km/h
20.07.2018 15:05 27,3 C 46 % 1012,3 hPa 0,0 l/m 0,0 km/h S-SO 156 0,0 km/h
20.07.2018 15:00 27,7 C 44 % 1012,2 hPa 0,0 l/m 0,0 km/h S-SO 156 0,0 km/h
20.07.2018 14:55 28,1 C 44 % 1012,3 hPa 0,0 l/m 0,0 km/h S-SO 158 0,0 km/h
20.07.2018 14:50 28,3 C 46 % 1012,4 hPa 0,0 l/m 0,0 km/h S-SO 148 0,0 km/h
20.07.2018 14:45 28,4 C 49 % 1012,5 hPa 0,0 l/m 0,0 km/h S 180 0,0 km/h
20.07.2018 14:40 28,2 C 54 % 1012,5 hPa 0,0 l/m 0,0 km/h S-SW 199 0,0 km/h
20.07.2018 14:35 27,7 C 49 % 1012,4 hPa 0,0 l/m 0,0 km/h O-SO 111 0,0 km/h
20.07.2018 14:30 27,8 C 41 % 1012,4 hPa 0,0 l/m 0,0 km/h S-SO 159 0,0 km/h
20.07.2018 14:25 27,8 C 43 % 1012,4 hPa 0,0 l/m 0,0 km/h S 179 0,0 km/h
20.07.2018 14:20 27,9 C 44 % 1012,4 hPa 0,0 l/m 0,0 km/h S-SW 210 0,0 km/h
20.07.2018 14:15 28,0 C 49 % 1012,4 hPa 0,0 l/m 0,0 km/h S-SW 208 1,6 km/h
20.07.2018 14:10 28,0 C 50 % 1012,4 hPa 0,0 l/m 0,0 km/h S 181 0,0 km/h
20.07.2018 14:05 27,8 C 52 % 1012,5 hPa 0,0 l/m 0,0 km/h S 181 0,0 km/h
20.07.2018 14:00 27,7 C 50 % 1012,6 hPa 0,0 l/m 0,0 km/h S 185 0,0 km/h
20.07.2018 13:55 27,7 C 47 % 1012,6 hPa 0,0 l/m 0,0 km/h S-SW 208 0,0 km/h
20.07.2018 13:50 27,2 C 57 % 1012,7 hPa 0,0 l/m 0,0 km/h S-SW 208 0,0 km/h
20.07.2018 13:45 26,8 C 51 % 1012,7 hPa 0,0 l/m 0,0 km/h S-SW 210 0,0 km/h
20.07.2018 13:40 27,1 C 49 % 1012,8 hPa 0,0 l/m 0,0 km/h SO 145 0,0 km/h
_ Min-Zeit 04:35 14:30 19:50 - 22:00 - - 22:05
Minimum _ 13,8 C 41 % 1011,8 hPa - 0,0 km/h - - 0,0 km/h
_ Max-Zeit 14:45 07:05 00:00 22:00 15:25 - - 15:25
Maximum _ 28,4 C 84 % 1014,7 hPa 0,0 l/m 0,2 km/h
S-SO
- - 4,8 km/h
SO
Durchschnitt _ 20,9 C 66 % 1013,5 hPa #0,0 l/m 0,0 km/h N - 0,2 km/h